Location: Unspecified
(58.7730°N, 5.8460°E)
Time: 11:14:12
(UTC+02:00)

Cosmos 2058 - Visible Passes

Search period start: 26 September 2017 00:00
Search period end: 06 October 2017 00:00
Orbit: 564 x 584 km, 82.5° (Epoch: 25 September)

Date Brightness Start Highest point End Pass type
(mag) Time Alt. Az. Time Alt. Az. Time Alt. Az.
26 Sep 5.8 00:26:00 10° WNW 00:27:16 11° WNW 00:27:27 11° W visible
26 Sep 4.0 21:13:34 10° N 21:17:16 28° ENE 21:18:22 25° E visible
26 Sep 3.6 22:50:21 10° NNW 22:54:28 50° W 22:54:36 50° WSW visible
27 Sep 3.7 21:16:48 10° N 21:20:41 34° ENE 21:21:46 29° E visible
27 Sep 3.9 22:53:44 10° NNW 22:57:44 41° W 22:57:59 40° WSW visible
28 Sep 3.5 21:20:03 10° N 21:24:05 40° ENE 21:25:09 34° ESE visible
28 Sep 4.3 22:57:09 10° NNW 23:00:59 34° W 23:01:23 33° WSW visible
29 Sep 3.2 21:23:19 10° N 21:27:27 49° ENE 21:28:35 38° ESE visible
29 Sep 4.6 23:00:36 10° NNW 23:04:13 28° W 23:04:48 27° WSW visible
30 Sep 4.9 19:50:47 10° NNE 19:52:55 13° NE 19:55:03 10° E visible
30 Sep 3.0 21:26:35 10° N 21:30:48 60° ENE 21:32:01 42° SE visible
30 Sep 4.9 23:04:04 10° NW 23:07:25 23° W 23:08:15 22° WSW visible
01 Oct 4.7 19:53:48 10° NNE 19:56:25 16° NE 19:59:01 10° E visible
01 Oct 2.8 21:29:54 10° N 21:34:09 74° ENE 21:35:29 42° SSE visible
01 Oct 5.2 23:07:37 10° NW 23:10:38 19° W 23:11:43 17° WSW visible
02 Oct 4.5 19:56:53 10° N 19:59:53 18° NE 20:02:45 10° E visible
02 Oct 2.9 21:33:12 10° NNW 21:37:28 90° NW 21:38:59 40° SSE visible
02 Oct 5.5 23:11:14 10° NW 23:13:49 16° W 23:15:13 14° WSW visible
03 Oct 4.3 20:00:02 10° N 20:03:20 21° ENE 20:06:16 12° ESE visible
03 Oct 3.1 21:36:32 10° NNW 21:40:47 74° W 21:42:31 34° S visible
03 Oct 5.7 23:15:00 10° NW 23:16:59 13° W 23:18:45 11° WSW visible
04 Oct 4.1 20:03:13 10° N 20:06:46 25° ENE 20:09:50 12° ESE visible
04 Oct 3.4 21:39:53 10° NNW 21:44:04 59° W 21:46:05 29° SSW visible
04 Oct 6.0 23:19:09 10° WNW 23:20:07 11° WNW 23:21:05 10° W visible
05 Oct 3.9 20:06:26 10° N 20:10:11 29° ENE 20:13:27 12° ESE visible
05 Oct 3.8 21:43:15 10° NNW 21:47:21 48° W 21:49:41 23° SSW visible
